SCP
0 0 0 0 0 0 0 0 0 0 0 0 0 0 0 0 0 0 0 0 0 0 0 0 0 0 0 0 0 0 0 0 -0 0 0 0 0 0
0 0 0 0 0 0 0 0 0 0 0 0 0 0 0 0 0 0 0 0 0 0 0 0 0 0 0 0 0 0 0 0 0 0 0 0 0 0
0 0 0 0 0 0 0 0 0 0 0 0 0 0 0 0 0 0 0 0 0 0 0 0 0 -0 0 0 0 0 0 0 0 0 0 0 0 0
0 0 0 0 0 0 0 0 0 0 0 0 0 0 0 0 0 0 0 0 0 0 0 0 0 -0 0 0 0 0 0 0 0 0 0 0 0 0
0 0 0 0 0 0 0 0 0 0 0 0 0 0 0 0 0 0 0 0 0 0 0 0 0 0 0 0 0 0 0 0 0 0 0 0 0 0
0 0 0 0 0 0 0 0 0 0 0 0 0 0 0 0 -0 -0 0 0 0 0 0 0 0 0 0 0 0 0 0 0 0 0 0 0 0 0
0 0 0 0 0 0 0 0 0 0 0 0 0 0 0 0 -0 0 0 0 0 0 0 0 0 0 0 0 0 0 0 0 0 0 0 0 0 0
0 0 0 0 0 0 0 0 0 0 0 0 0 0 0 0 0 0 0 -0 0 0 0 0 0 0 0 0 0 0 0 0 0 0 0 0 0 0
0 0 0 0 0 0 0 0 0 0 0 0 0 0 0 0 0 0 0 -0 0 0 0 0 0 0 0 0 0 0 0 0 0 0 0 0 0 0
0 0 0 0 0 0 0 0 0 0 0 0 0 0 0 0 -0 0 0 0 0 0 0 0 0 0 0 0 0 0 0 0 0 0 0 0 0 0
0 0 0 0 0 0 0 0 0 0 0 0 0 0 0 -0 -0 -0 0 0 0 0 0 0 0 0 0 0 0 0 0 0 0 0 0 0 0 0
0 0 0 0 0 0 0 0 0 0 0 0 0 0 0 0 -0 -0 0 0 0 0 0 0 0 0 0 0 0 0 0 -0 0 0 0 0 0 0
0 0 0 -0 0 0 0 0 0 0 0 0 0 0 0 0 0 -0 -0 0 0 0 0 0 0 0 0 0 0 0 0 0 0 0 0 0 0 0
0 0 0 -0 0 0 0 0 0 0 0 0 0 0 0 0 0 0 -0 -0 -0 0 0 0 0 0 0 0 0 0 0 0 0 0 0 0 0 0
0 0 0 0 0 0 0 0 0 0 0 0 0 0 0 0 0 0 0 0 -0 -0 0 0 0 0 0 0 0 0 0 0 0 0 0 0 0 0
0 0 0 0 0 0 0 0 0 0 0 0 0 0 0 0 -0 0 0 -0 -0 -0 -0 0 0 0 0 0 0 0 0 0 0 0 0 0 0 0
0 0 0 0 0 0 0 0 0 0 0 0 0 0 0 0 0 0 0 -0 -0 -0 0 0 0 0 0 0 0 0 0 0 0 0 0 0 0 0
0 0 0 0 0 0 0 0 0 0 0 0 0 0 0 0 0 0 0 0 0 -0 -0 0 0 0 0 0 0 0 0 0 0 0 0 0 0 0
0 0 0 0 0 0 0 0 -0 0 0 0 0 0 0 -0 0 0 0 0 0 -0 0 0 -0 -0 0 0 0 0 0 0 0 0 0 0 0 0
0 0 0 0 0 0 0 0 0 -0 0 0 0 0 0 0 -0 -0 -0 0 0 0 0 0 0 0 0 0 0 0 0 0 0 0 0 0 0 0
0 0 0 0 0 0 0 0 0 0 -0 -0 -0 0 0 0 -0 -0 0 0 0 0 -0 0 0 0 0 0 0 0 0 0 0 0 0 0 0 0
0 0 0 0 0 0 0 0 0 0 0 0 -0 -0 -0 0 0 0 0 0 0 0 0 0 0 0 0 0 0 0 0 0 -0 -0 -0 -0 0 0
0 0 0 0 0 0 0 0 0 0 0 0 0 0 0 -0 0 0 0 -0 -0 0 0 0 0 -0 0 0 0 0 -0 -0 0 0 0 -0 0 0
Wind_Speed_500mb
69 73 63 64 59 61 62 63 73 96 105 87 82 73 73 91 77 75 67 68 73 57 50 51 41 52 60 70 73 77 77 96 110 103 97 104 138 126
71 69 64 59 54 53 55 59 62 76 100 82 90 93 82 79 79 72 63 62 68 57 38 47 46 44 39 66 68 70 75 90 116 116 97 102 103 110
69 65 63 54 53 55 55 58 65 72 80 90 88 76 76 78 71 61 59 55 60 49 32 38 49 46 60 49 75 58 86 78 108 113 101 99 110 93
67 63 61 51 53 52 54 55 58 49 51 73 73 77 75 69 68 68 62 44 50 43 33 40 39 48 50 45 50 67 60 83 86 109 100 104 94 111
64 61 57 46 52 50 51 51 50 45 45 54 73 67 73 75 69 54 46 38 27 34 24 40 38 39 57 45 44 48 55 64 80 96 93 99 84 99
59 57 48 44 48 44 44 45 42 43 48 55 63 72 73 69 65 55 50 24 27 20 17 25 42 39 48 50 45 49 47 61 69 93 97 92 80 82
59 55 43 35 39 32 35 41 38 44 53 58 71 76 76 60 54 53 36 17 12 15 18 26 32 37 36 44 46 50 42 48 71 91 97 82 73 72
63 56 42 32 34 27 26 31 36 44 51 56 63 64 58 48 44 40 35 25 7 9 13 19 27 40 41 39 48 50 50 42 52 67 85 73 65 63
59 58 45 33 32 32 25 29 33 37 38 45 58 52 44 32 31 34 35 24 6 6 9 8 15 18 26 38 49 52 49 47 33 57 91 75 64 51
56 57 49 37 28 32 31 33 36 38 41 43 42 39 31 27 24 29 24 10 7 11 22 27 27 21 14 3 37 43 45 49 42 36 73 83 69 88
52 50 43 36 24 27 27 30 30 29 30 29 33 31 30 29 25 18 2 10 13 20 36 45 52 50 39 41 38 32 30 33 39 44 72 94 104 132
46 48 42 35 23 26 25 20 26 32 38 33 26 24 24 23 21 14 8 4 24 19 34 37 46 40 41 82 85 89 81 72 74 85 107 112 130 141
43 43 39 30 25 24 26 20 20 25 29 33 27 20 21 22 22 16 7 5 3 5 16 11 25 36 54 67 97 104 105 112 114 114 123 131 148 148
39 39 40 34 28 24 20 18 16 21 22 23 17 16 23 26 26 21 12 6 6 16 8 7 34 67 89 92 83 88 102 100 99 102 103 118 130 135
34 34 37 34 29 25 20 15 12 14 14 12 10 16 20 22 20 21 19 16 14 19 19 14 23 76 82 85 89 80 94 91 93 91 92 103 104 89
32 30 31 31 30 27 21 13 9 6 7 7 11 15 16 15 16 23 25 32 33 39 35 38 52 60 77 86 90 88 68 80 80 84 88 86 80 78
26 26 26 25 24 23 18 9 8 11 10 12 14 13 14 16 16 22 24 34 47 55 58 59 72 76 85 84 73 73 81 80 81 82 80 86 81 74
22 20 18 16 15 17 17 11 12 13 14 14 15 15 16 18 15 25 34 43 54 55 58 66 73 75 69 75 83 87 87 82 74 71 74 82 78 62
20 19 18 13 11 12 12 10 10 14 15 12 14 15 16 19 22 34 41 48 53 59 63 59 57 68 82 81 67 70 79 74 73 69 62 65 68 59
25 17 17 12 9 6 9 7 7 11 16 13 11 17 22 21 23 32 41 44 48 55 58 54 53 61 76 85 82 64 60 65 58 62 59 54 52 50
32 23 16 14 8 5 3 6 5 8 12 14 18 20 20 25 32 32 29 29 39 48 48 44 42 46 70 79 81 70 60 45 38 40 47 40 42 41
40 31 22 18 13 11 7 8 9 11 13 15 18 25 32 31 32 30 27 35 41 45 48 46 43 52 62 60 71 72 62 57 50 44 40 34 30 23
44 37 30 25 19 17 13 11 12 16 19 20 20 25 29 32 30 31 34 41 49 53 50 46 46 49 46 55 58 59 56 49 44 39 31 30 22 21
Wind_Direction_500mb
325 322 323 317 307 301 301 301 294 297 299 305 303 299 297 306 304 303 294 291 285 270 264 242 255 250 233 228 226 227 222 220 215 221 221 220 211 210
323 327 328 321 311 307 311 309 305 295 293 302 304 305 305 306 305 302 295 298 279 270 258 238 244 243 241 225 226 230 228 221 219 217 223 225 221 212
327 332 327 321 320 325 325 320 311 303 289 301 304 312 309 307 308 304 301 297 275 256 252 246 241 241 244 228 229 219 218 216 219 214 224 221 223 215
334 330 328 330 333 331 332 326 318 311 304 298 312 316 315 315 308 301 297 289 273 265 244 225 234 237 230 231 227 224 224 217 217 214 222 224 223 217
334 331 332 334 331 335 340 335 326 318 310 306 311 321 324 323 322 313 291 287 268 258 223 218 227 227 234 233 221 222 227 211 213 212 216 221 233 213
333 334 332 336 330 337 347 337 329 324 320 316 320 319 324 330 327 321 328 295 287 254 235 232 229 225 228 236 223 220 216 220 218 217 218 219 229 232
339 337 329 328 326 339 346 339 333 330 321 324 327 321 331 336 332 337 328 325 272 269 245 247 226 225 224 227 223 222 228 224 218 216 213 215 226 232
337 339 331 315 324 331 339 332 330 324 314 322 327 332 335 340 343 343 339 337 307 327 283 264 228 224 231 224 219 220 227 228 225 220 213 213 221 218
337 337 337 316 314 315 322 319 322 327 322 315 325 332 328 333 342 337 325 326 273 150 129 163 153 200 219 225 216 215 216 216 220 213 212 212 216 214
340 339 336 324 315 314 316 323 329 331 325 330 333 331 327 323 324 319 317 305 166 150 138 102 119 123 155 167 206 214 215 215 219 223 210 206 194 178
341 340 340 326 314 315 316 331 329 336 345 344 340 339 343 345 349 336 270 176 116 99 117 96 93 102 124 122 137 196 181 210 223 212 203 187 173 174
343 344 342 336 321 306 312 329 341 353 352 347 341 348 5 6 355 351 309 184 117 102 121 120 123 111 85 98 109 117 132 153 153 160 168 178 182 172
343 346 345 347 341 310 307 312 338 352 351 344 339 356 18 26 30 23 0 208 162 140 158 140 132 130 120 100 110 120 126 126 126 130 137 145 160 176
343 348 348 3 346 333 318 320 334 335 345 340 341 19 46 52 55 49 42 46 96 145 183 136 137 137 131 120 112 118 126 133 131 127 131 140 146 151
339 350 353 2 357 345 329 329 323 322 339 344 26 47 57 60 71 79 80 83 107 100 81 86 162 144 136 128 126 121 125 123 129 127 128 136 137 136
334 348 353 3 7 359 348 341 336 10 34 43 60 60 62 73 85 102 103 114 117 111 120 138 148 149 127 119 121 121 116 119 122 124 124 120 122 126
323 340 352 4 5 6 7 17 43 64 73 88 81 77 86 90 102 122 121 123 119 121 125 130 133 131 127 128 125 123 124 124 124 124 125 120 118 119
305 323 331 356 18 15 25 36 76 84 88 91 95 95 99 104 115 109 119 116 115 124 129 135 134 131 127 123 127 128 129 128 126 126 124 124 119 121
278 302 312 335 357 36 34 48 83 99 89 86 101 101 108 116 133 125 126 125 120 126 131 140 138 134 128 120 122 125 123 122 123 122 121 122 127 134
254 270 293 304 321 5 53 57 96 120 117 118 111 119 120 122 139 139 140 140 139 141 144 145 145 141 136 134 129 124 120 122 128 128 133 135 136 140
244 248 263 274 275 279 80 83 107 135 140 148 138 125 124 139 150 151 148 145 147 146 146 147 150 149 141 138 130 130 133 134 134 134 133 140 144 146
237 239 243 252 246 236 213 156 141 149 149 152 153 145 141 143 146 147 148 147 149 148 147 144 143 153 149 146 138 139 141 141 144 147 147 150 150 157
234 235 234 240 236 226 216 189 165 159 160 156 157 155 154 154 154 148 144 146 148 150 151 148 147 153 152 149 145 145 145 147 149 154 159 160 164 162
Wind_Speed_850mb
69 73 63 64 59 61 62 63 73 96 105 87 82 73 73 91 77 75 67 68 73 57 50 51 41 52 60 70 73 77 77 96 110 103 97 104 138 126
71 69 64 59 54 53 55 59 62 76 100 82 90 93 82 79 79 72 63 62 68 57 38 47 46 44 39 66 68 70 75 90 116 116 97 102 103 110
69 65 63 54 53 55 55 58 65 72 80 90 88 76 76 78 71 61 59 55 60 49 32 38 49 46 60 49 75 58 86 78 108 113 101 99 110 93
67 63 61 51 53 52 54 55 58 49 51 73 73 77 75 69 68 68 62 44 50 43 33 40 39 48 50 45 50 67 60 83 86 109 100 104 94 111
64 61 57 46 52 50 51 51 50 45 45 54 73 67 73 75 69 54 46 38 27 34 24 40 38 39 57 45 44 48 55 64 80 96 93 99 84 99
59 57 48 44 48 44 44 45 42 43 48 55 63 72 73 69 65 55 50 24 27 20 17 25 42 39 48 50 45 49 47 61 69 93 97 92 80 82
59 55 43 35 39 32 35 41 38 44 53 58 71 76 76 60 54 53 36 17 12 15 18 26 32 37 36 44 46 50 42 48 71 91 97 82 73 72
63 56 42 32 34 27 26 31 36 44 51 56 63 64 58 48 44 40 35 25 7 9 13 19 27 40 41 39 48 50 50 42 52 67 85 73 65 63
59 58 45 33 32 32 25 29 33 37 38 45 58 52 44 32 31 34 35 24 6 6 9 8 15 18 26 38 49 52 49 47 33 57 91 75 64 51
56 57 49 37 28 32 31 33 36 38 41 43 42 39 31 27 24 29 24 10 7 11 22 27 27 21 14 3 37 43 45 49 42 36 73 83 69 88
52 50 43 36 24 27 27 30 30 29 30 29 33 31 30 29 25 18 2 10 13 20 36 45 52 50 39 41 38 32 30 33 39 44 72 94 104 132
46 48 42 35 23 26 25 20 26 32 38 33 26 24 24 23 21 14 8 4 24 19 34 37 46 40 41 82 85 89 81 72 74 85 107 112 130 141
43 43 39 30 25 24 26 20 20 25 29 33 27 20 21 22 22 16 7 5 3 5 16 11 25 36 54 67 97 104 105 112 114 114 123 131 148 148
39 39 40 34 28 24 20 18 16 21 22 23 17 16 23 26 26 21 12 6 6 16 8 7 34 67 89 92 83 88 102 100 99 102 103 118 130 135
34 34 37 34 29 25 20 15 12 14 14 12 10 16 20 22 20 21 19 16 14 19 19 14 23 76 82 85 89 80 94 91 93 91 92 103 104 89
32 30 31 31 30 27 21 13 9 6 7 7 11 15 16 15 16 23 25 32 33 39 35 38 52 60 77 86 90 88 68 80 80 84 88 86 80 78
26 26 26 25 24 23 18 9 8 11 10 12 14 13 14 16 16 22 24 34 47 55 58 59 72 76 85 84 73 73 81 80 81 82 80 86 81 74
22 20 18 16 15 17 17 11 12 13 14 14 15 15 16 18 15 25 34 43 54 55 58 66 73 75 69 75 83 87 87 82 74 71 74 82 78 62
20 19 18 13 11 12 12 10 10 14 15 12 14 15 16 19 22 34 41 48 53 59 63 59 57 68 82 81 67 70 79 74 73 69 62 65 68 59
25 17 17 12 9 6 9 7 7 11 16 13 11 17 22 21 23 32 41 44 48 55 58 54 53 61 76 85 82 64 60 65 58 62 59 54 52 50
32 23 16 14 8 5 3 6 5 8 12 14 18 20 20 25 32 32 29 29 39 48 48 44 42 46 70 79 81 70 60 45 38 40 47 40 42 41
40 31 22 18 13 11 7 8 9 11 13 15 18 25 32 31 32 30 27 35 41 45 48 46 43 52 62 60 71 72 62 57 50 44 40 34 30 23
44 37 30 25 19 17 13 11 12 16 19 20 20 25 29 32 30 31 34 41 49 53 50 46 46 49 46 55 58 59 56 49 44 39 31 30 22 21
Wind_Direction_850mb
325 322 323 317 307 301 301 301 294 297 299 305 303 299 297 306 304 303 294 291 285 270 264 242 255 250 233 228 226 227 222 220 215 221 221 220 211 210
323 327 328 321 311 307 311 309 305 295 293 302 304 305 305 306 305 302 295 298 279 270 258 238 244 243 241 225 226 230 228 221 219 217 223 225 221 212
327 332 327 321 320 325 325 320 311 303 289 301 304 312 309 307 308 304 301 297 275 256 252 246 241 241 244 228 229 219 218 216 219 214 224 221 223 215
334 330 328 330 333 331 332 326 318 311 304 298 312 316 315 315 308 301 297 289 273 265 244 225 234 237 230 231 227 224 224 217 217 214 222 224 223 217
334 331 332 334 331 335 340 335 326 318 310 306 311 321 324 323 322 313 291 287 268 258 223 218 227 227 234 233 221 222 227 211 213 212 216 221 233 213
333 334 332 336 330 337 347 337 329 324 320 316 320 319 324 330 327 321 328 295 287 254 235 232 229 225 228 236 223 220 216 220 218 217 218 219 229 232
339 337 329 328 326 339 346 339 333 330 321 324 327 321 331 336 332 337 328 325 272 269 245 247 226 225 224 227 223 222 228 224 218 216 213 215 226 232
337 339 331 315 324 331 339 332 330 324 314 322 327 332 335 340 343 343 339 337 307 327 283 264 228 224 231 224 219 220 227 228 225 220 213 213 221 218
337 337 337 316 314 315 322 319 322 327 322 315 325 332 328 333 342 337 325 326 273 150 129 163 153 200 219 225 216 215 216 216 220 213 212 212 216 214
340 339 336 324 315 314 316 323 329 331 325 330 333 331 327 323 324 319 317 305 166 150 138 102 119 123 155 167 206 214 215 215 219 223 210 206 194 178
341 340 340 326 314 315 316 331 329 336 345 344 340 339 343 345 349 336 270 176 116 99 117 96 93 102 124 122 137 196 181 210 223 212 203 187 173 174
343 344 342 336 321 306 312 329 341 353 352 347 341 348 5 6 355 351 309 184 117 102 121 120 123 111 85 98 109 117 132 153 153 160 168 178 182 172
343 346 345 347 341 310 307 312 338 352 351 344 339 356 18 26 30 23 0 208 162 140 158 140 132 130 120 100 110 120 126 126 126 130 137 145 160 176
343 348 348 3 346 333 318 320 334 335 345 340 341 19 46 52 55 49 42 46 96 145 183 136 137 137 131 120 112 118 126 133 131 127 131 140 146 151
339 350 353 2 357 345 329 329 323 322 339 344 26 47 57 60 71 79 80 83 107 100 81 86 162 144 136 128 126 121 125 123 129 127 128 136 137 136
334 348 353 3 7 359 348 341 336 10 34 43 60 60 62 73 85 102 103 114 117 111 120 138 148 149 127 119 121 121 116 119 122 124 124 120 122 126
323 340 352 4 5 6 7 17 43 64 73 88 81 77 86 90 102 122 121 123 119 121 125 130 133 131 127 128 125 123 124 124 124 124 125 120 118 119
305 323 331 356 18 15 25 36 76 84 88 91 95 95 99 104 115 109 119 116 115 124 129 135 134 131 127 123 127 128 129 128 126 126 124 124 119 121
278 302 312 335 357 36 34 48 83 99 89 86 101 101 108 116 133 125 126 125 120 126 131 140 138 134 128 120 122 125 123 122 123 122 121 122 127 134
254 270 293 304 321 5 53 57 96 120 117 118 111 119 120 122 139 139 140 140 139 141 144 145 145 141 136 134 129 124 120 122 128 128 133 135 136 140
244 248 263 274 275 279 80 83 107 135 140 148 138 125 124 139 150 151 148 145 147 146 146 147 150 149 141 138 130 130 133 134 134 134 133 140 144 146
237 239 243 252 246 236 213 156 141 149 149 152 153 145 141 143 146 147 148 147 149 148 147 144 143 153 149 146 138 139 141 141 144 147 147 150 150 157
234 235 234 240 236 226 216 189 165 159 160 156 157 155 154 154 154 148 144 146 148 150 151 148 147 153 152 149 145 145 145 147 149 154 159 160 164 162